[[{"header":{"parameterUnit":"m.s-1","parameterCategory":1,"la1":30.2991,"la2":30.254,"lo1":-89.0895,"lo2":-89.0444,"dy":0.0017,"dx":0.0017,"nx":28,"ny":28,"refTime":"2024-08-07T09:00:00:Z","depth":0,"parameterNumber":2,"parameterNumberName":"U-component_of_WINDS"},"data":[0,0,0,0,0,0,0,0,0,0,0,0,0,0,0,0,0,0,0,0,0,0,0,0,0,0,0,0,0,0,0,0,0,0,0,0,0,0,0,0,0,0,0,0,0,0,0,0,0,0,0,0,0,0,0,0,0,0,2.0005,2.0006,0,2.0123,2.0125,2.0126,2.0189,2.0189,2.019,2.019,2.031,2.0313,2.0316,0,0,0,0,0,0,0,0,0,0,0,0,0,1.9832,1.9835,2.0005,2.0006,2.0008,2.0123,2.0125,2.0126,2.0189,2.0189,2.019,2.019,2.0309,2.0312,2.0316,0,0,0,0,0,0,0,0,0,0,0,0,0,1.9924,1.9836,2.0004,2.0053,2.0059,2.0123,2.0125,2.0127,2.0189,2.0189,2.019,2.019,2.0307,2.0312,2.0316,2.0341,0,0,2.0331,2.0333,0,0,0,0,0,0,0,0,1.9919,1.9931,2.0044,2.005,2.0056,2.0142,2.0108,2.0198,2.0189,2.014,2.019,2.019,2.0254,2.0263,2.0284,2.0347,2.0352,2.0331,2.0334,2.0336,2.0337,0,0,0,0,0,0,0,1.9913,1.9926,2.0052,2.0046,2.0053,2.0069,2.0082,2.0125,2.0194,2.0144,2.0149,2.0162,2.0257,2.028,2.0288,2.0353,2.0331,2.0335,2.0338,2.034,2.0443,2.0443,0,0,0,0,0,0,1.9899,1.992,2.0048,2.0055,1.9987,2.0072,2.0087,2.0114,2.0194,2.0206,2.0162,2.0165,2.0272,2.0282,2.0292,2.0327,2.0336,2.034,2.0343,2.0443,2.0443,2.0443,0,0,0,0,0,0,1.9895,1.9909,2.0043,1.9989,2.0007,2.0074,2.0105,2.0116,2.0139,2.0207,2.022,2.0173,2.0272,2.0286,2.0329,2.0332,2.0342,2.0346,2.0443,2.0443,2.0443,2.0395,0,0,0,0,0,0,1.9889,1.9908,1.9917,1.9989,2.001,2.0077,2.0105,2.0118,2.0147,2.0152,2.0221,2.0232,2.0274,2.0321,2.0333,2.0338,2.035,2.0443,2.0443,2.0443,2.0397,2.0393,2.0391,0,0,0,0,0,1.9883,1.9899,1.9918,1.9933,2.0024,2.0077,2.009,2.0137,2.0147,2.0158,2.0202,2.023,2.0329,2.0325,2.0339,2.0345,2.0443,2.0443,2.0443,2.0398,2.0394,2.0391,0,0,0,0,0,0,1.9825,1.9909,1.9931,1.997,2.0016,2.0088,2.0103,2.0131,2.0175,2.0178,2.0234,2.0249,2.0287,2.0321,2.0315,2.0374,2.0389,2.0392,2.035,2.0347,2.0344,2.0335,2.0354,0,0,0,0,0,1.9817,1.9854,1.9925,1.9953,1.9975,2.0035,2.006,2.0093,2.0143,2.0162,2.0209,2.0256,2.0298,2.0325,2.0367,2.0402,2.0418,2.0413,2.041,2.0407,2.0409,2.0431,2.043,2.0443,2.0443,2.0443,0,0,1.9801,1.9851,1.9871,1.9943,1.9982,2.0019,2.0051,2.0088,2.0116,2.0168,2.0212,2.0248,2.0304,2.0343,2.0363,2.0373,2.0409,2.0407,2.0405,2.0408,2.0431,2.0429,2.0428,2.0443,2.0443,2.0443,0,0,1.9789,1.9831,1.9859,1.9899,1.9959,1.9999,2.0005,2.0073,2.0099,2.0144,2.0184,2.0218,2.0289,2.0328,2.0357,2.0362,2.039,2.0374,2.0358,2.0379,2.0378,2.0377,2.0379,2.0379,2.0375,2.0375,2.0375,0,1.9761,1.9818,1.987,1.9906,1.9936,1.9986,2.0015,2.0051,2.0121,2.0141,2.0151,2.0242,2.0283,2.0332,2.0334,2.0355,2.0365,2.0366,2.0374,2.0373,2.0374,2.0376,2.0377,2.0373,2.0373,2.0374,2.0374,0,1.9781,1.982,1.9835,1.9903,1.9936,1.9967,2.0024,2.0051,2.0081,2.012,2.0165,2.0217,2.0271,2.0286,2.0315,2.034,2.0344,2.0363,2.0379,2.0369,2.0373,2.0374,2.037,2.0371,2.0371,2.0372,0,0,1.9735,1.9832,1.9837,1.9868,1.9939,1.997,2.0005,2.0058,2.008,2.0127,2.0158,2.0217,2.0236,2.0269,2.0304,2.0322,2.0323,2.0339,2.0341,2.0334,2.0354,2.0338,2.0339,2.0342,2.0343,2.0343,2.0349,0,1.9733,1.9798,1.9846,1.9892,1.9929,1.9978,2.0008,2.0055,2.0092,2.0129,2.0171,2.0212,2.0233,2.0254,2.0274,2.0318,2.0327,2.0319,2.0371,2.0372,2.0355,2.0341,2.0324,2.0327,2.0351,2.0351,2.0351,0,1.974,1.9786,1.9836,1.9904,1.9921,1.9947,2.0001,2.0036,2.009,2.0116,2.0154,2.019,2.0229,2.0242,2.0297,2.029,2.0314,2.034,2.0341,2.0347,2.0361,2.0346,2.033,2.033,2.0354,2.0353,2.0353,0,1.9701,1.9776,1.9816,1.9842,1.9922,1.9939,1.9973,2.0028,2.0057,2.0104,2.0124,2.0174,2.0202,2.0241,2.029,2.0295,2.0339,2.0357,2.0362,2.0361,2.0369,2.0367,2.0355,2.0385,2.0385,2.0385,2.0385,0,1.9694,1.9722,1.98,1.9824,1.9858,1.9914,1.9945,1.9984,2.0032,2.0065,2.011,2.014,2.0203,2.0241,2.028,2.0319,2.0331,2.0354,2.0364,2.0349,2.0347,2.0366,2.0367,2.0385,2.0385,2.0385,2.0385,0,1.9656,1.9709,1.9756,1.9828,1.9847,1.9869,1.9931,1.9956,1.9997,2.0038,2.0051,2.0115,2.0162,2.0215,2.0279,2.0305,2.0342,2.0357,2.0324,2.033,2.0332,2.0331,2.0332,2.0335,2.0362,2.0361,2.0361,0,1.9647,1.967,1.9746,1.9772,1.9805,1.9845,1.9876,1.9932,1.9962,2.0026,2.0044,2.0095,2.0138,2.0211,2.0263,2.0313,2.0329,2.0326,2.0336,2.0322,2.0329,2.0327,2.0329,2.0322,2.0322,2.0321,2.0321,0,1.9626,1.9652,1.9695,1.9747,1.9783,1.9826,1.9872,1.989,1.9956,1.9987,2.0036,2.007,2.0137,2.0186,2.0243,2.0278,2.031,2.0317,2.0321,2.0307,2.0287,2.0298,2.0315,2.0317,2.0317,2.0317,2.0318,2.0318,1.9603,1.9626,1.9683,1.973,1.977,1.9812,1.984,1.9885,1.9927,1.9986,2.0017,2.0065,2.012,2.02,2.0234,2.0273,2.0284,2.0289,2.0291,2.0291,2.0287,2.0281,2.0284,2.0284,2.0284,2.0284,2.0285,0,1.9584,1.9623,1.9666,1.9729,1.9766,1.9794,1.9846,1.9875,1.9917,1.9966,2.0009,2.0066,2.0115,2.0171,2.0224,2.0244,2.0261,2.0256,2.0255,2.0263,2.0275,2.0266,2.0242,2.0242,2.0242,2.0242,2.0242,2.0242,1.9578,1.9619,1.9652,1.9714,1.9754,1.9802,1.983,1.9869,1.9909,1.997,2.0011,2.0049,2.0101,2.0158,2.0205,2.022,2.0238,2.0229,2.0248,2.0258,2.0262,2.0265,2.0257,2.0232,2.0232,2.0234,2.0234,2.0234]},{"header":{"parameterUnit":"m.s-1","parameterCategory":1,"la1":30.2991,"la2":30.254,"lo1":-89.0895,"lo2":-89.0444,"dy":0.0017,"dx":0.0017,"nx":28,"ny":28,"refTime":"2024-08-07T09:00:00:Z","depth":0,"parameterNumber":3,"parameterNumberName":"V-component_of_WINDS"},"data":[0,0,0,0,0,0,0,0,0,0,0,0,0,0,0,0,0,0,0,0,0,0,0,0,0,0,0,0,0,0,0,0,0,0,0,0,0,0,0,0,0,0,0,0,0,0,0,0,0,0,0,0,0,0,0,0,0,0,-2.301,-2.301,0,-2.3081,-2.3082,-2.3083,-2.3041,-2.3039,-2.3037,-2.3035,-2.3108,-2.3111,-2.3115,0,0,0,0,0,0,0,0,0,0,0,0,0,-2.2837,-2.284,-2.301,-2.301,-2.3011,-2.3081,-2.3082,-2.3083,-2.3041,-2.3039,-2.3036,-2.3034,-2.3106,-2.3111,-2.3115,0,0,0,0,0,0,0,0,0,0,0,0,0,-2.291,-2.2841,-2.3009,-2.2999,-2.2999,-2.3081,-2.3082,-2.3083,-2.3042,-2.3039,-2.3036,-2.3033,-2.3105,-2.311,-2.3116,-2.3212,0,0,-2.3134,-2.3136,0,0,0,0,0,0,0,0,-2.2906,-2.2917,-2.3,-2.3,-2.3,-2.3049,-2.3047,-2.3126,-2.3043,-2.3025,-2.3035,-2.3031,-2.309,-2.3097,-2.3117,-2.3215,-2.3219,-2.3134,-2.3138,-2.314,-2.3142,0,0,0,0,0,0,0,-2.2901,-2.2913,-2.3038,-2.3001,-2.3001,-2.2991,-2.2998,-2.3062,-2.3074,-2.3027,-2.3024,-2.3033,-2.309,-2.3112,-2.3119,-2.322,-2.3134,-2.3139,-2.3143,-2.3145,-2.34,-2.3403,0,0,0,0,0,0,-2.2897,-2.2909,-2.3035,-2.304,-2.2945,-2.2996,-2.3004,-2.3036,-2.3073,-2.3076,-2.3035,-2.3031,-2.3104,-2.3112,-2.3121,-2.3236,-2.314,-2.3145,-2.3149,-2.3396,-2.34,-2.3404,0,0,0,0,0,0,-2.2893,-2.2908,-2.3033,-2.2974,-2.2989,-2.3002,-2.3039,-2.3039,-2.3061,-2.308,-2.3082,-2.3056,-2.3101,-2.3113,-2.319,-2.3238,-2.3148,-2.3153,-2.3393,-2.3398,-2.3402,-2.3466,0,0,0,0,0,0,-2.2888,-2.2907,-2.2944,-2.2975,-2.2992,-2.3101,-2.3042,-2.3043,-2.3071,-2.3066,-2.3099,-2.3102,-2.31,-2.3181,-2.3195,-2.3244,-2.3158,-2.3388,-2.3395,-2.3401,-2.346,-2.3473,-2.3484,0,0,0,0,0,-2.2882,-2.2959,-2.2946,-2.2962,-2.3039,-2.3103,-2.3113,-2.3109,-2.3075,-2.3112,-2.3124,-2.3101,-2.323,-2.319,-2.3205,-2.3256,-2.3385,-2.3393,-2.34,-2.3454,-2.347,-2.3483,0,0,0,0,0,0,-2.2934,-2.2963,-2.2949,-2.3038,-2.3069,-2.3096,-2.3143,-2.3126,-2.3167,-2.316,-2.3153,-2.3161,-2.3241,-2.3256,-2.3211,-2.3351,-2.3302,-2.3313,-2.3338,-2.3353,-2.3365,-2.336,-2.3162,0,0,0,0,0,-2.2955,-2.3006,-2.3029,-2.3105,-2.3121,-2.3129,-2.3157,-2.3152,-2.3183,-2.3196,-2.3213,-2.3244,-2.3292,-2.3323,-2.3368,-2.3461,-2.3468,-2.3504,-2.3516,-2.3526,-2.3535,-2.3586,-2.3602,-2.3429,-2.3429,-2.3429,0,0,-2.3001,-2.3023,-2.3055,-2.3116,-2.3139,-2.3191,-2.3141,-2.3198,-2.3236,-2.3204,-2.3278,-2.3292,-2.3326,-2.3412,-2.345,-2.3426,-2.3585,-2.3535,-2.3543,-2.3547,-2.3595,-2.3612,-2.3626,-2.3434,-2.3433,-2.3432,0,0,-2.311,-2.3132,-2.3198,-2.3222,-2.3257,-2.3262,-2.3278,-2.3308,-2.3316,-2.339,-2.3367,-2.3413,-2.3495,-2.352,-2.3544,-2.3662,-2.3642,-2.3677,-2.3739,-2.3789,-2.3802,-2.3814,-2.3857,-2.3872,-2.3686,-2.3686,-2.3687,0,-2.3162,-2.324,-2.3234,-2.3293,-2.332,-2.3294,-2.3361,-2.3384,-2.3432,-2.3452,-2.3424,-2.3527,-2.3548,-2.3639,-2.3668,-2.3688,-2.3705,-2.3673,-2.3801,-2.3813,-2.3824,-2.3864,-2.388,-2.369,-2.369,-2.369,-2.3689,0,-2.3302,-2.3356,-2.3405,-2.3452,-2.3485,-2.3548,-2.3551,-2.3585,-2.3577,-2.3584,-2.366,-2.3684,-2.3733,-2.3754,-2.3747,-2.3844,-2.3829,-2.3801,-2.3753,-2.3845,-2.3882,-2.3898,-2.3696,-2.3695,-2.3694,-2.3693,0,0,-2.3446,-2.3489,-2.3507,-2.3528,-2.3565,-2.3606,-2.3668,-2.3716,-2.3745,-2.3779,-2.383,-2.39,-2.3875,-2.3902,-2.3896,-2.394,-2.4032,-2.3907,-2.3908,-2.393,-2.4141,-2.4162,-2.418,-2.4019,-2.4022,-2.4024,-2.4138,0,-2.3557,-2.3664,-2.3661,-2.3761,-2.3811,-2.3786,-2.3839,-2.3868,-2.3876,-2.392,-2.3929,-2.3979,-2.3942,-2.3958,-2.4,-2.4012,-2.4075,-2.4004,-2.4067,-2.4069,-2.4059,-2.4199,-2.4221,-2.4328,-2.4153,-2.4156,-2.4157,0,-2.3702,-2.3741,-2.3846,-2.3875,-2.3896,-2.3944,-2.3987,-2.4029,-2.4061,-2.4064,-2.4094,-2.4082,-2.4144,-2.4093,-2.4178,-2.413,-2.4156,-2.4166,-2.417,-2.4175,-2.4119,-2.4209,-2.4362,-2.4378,-2.4181,-2.4179,-2.4177,0,-2.3796,-2.3875,-2.3948,-2.3966,-2.4002,-2.4037,-2.4053,-2.4082,-2.4111,-2.4149,-2.4168,-2.4213,-2.4237,-2.4272,-2.4272,-2.4236,-2.4359,-2.4308,-2.4363,-2.4363,-2.439,-2.4389,-2.4549,-2.4407,-2.4406,-2.4406,-2.4406,0,-2.3921,-2.3987,-2.3991,-2.4035,-2.4108,-2.4103,-2.4174,-2.4187,-2.4213,-2.426,-2.4241,-2.4285,-2.4283,-2.4328,-2.4328,-2.4399,-2.441,-2.4414,-2.4414,-2.4416,-2.4416,-2.4433,-2.4426,-2.441,-2.4409,-2.4409,-2.4408,0,-2.4039,-2.4045,-2.4122,-2.415,-2.4158,-2.421,-2.4234,-2.4276,-2.4283,-2.4343,-2.4357,-2.4368,-2.442,-2.4423,-2.4483,-2.4483,-2.4569,-2.456,-2.4559,-2.4557,-2.4612,-2.4607,-2.479,-2.4813,-2.4655,-2.4656,-2.4658,0,-2.4119,-2.4169,-2.4201,-2.4231,-2.425,-2.4299,-2.4328,-2.4325,-2.4357,-2.4396,-2.4434,-2.4484,-2.4524,-2.4608,-2.4621,-2.4667,-2.4659,-2.472,-2.4666,-2.4667,-2.466,-2.4658,-2.4662,-2.4731,-2.4732,-2.4734,-2.4735,0,-2.426,-2.426,-2.4303,-2.4348,-2.4384,-2.4419,-2.4451,-2.4477,-2.4478,-2.4514,-2.4567,-2.4598,-2.4659,-2.4709,-2.4753,-2.477,-2.4753,-2.4752,-2.4767,-2.477,-2.4767,-2.477,-2.4587,-2.4748,-2.4746,-2.4746,-2.4745,-2.4744,-2.4361,-2.4404,-2.4434,-2.4483,-2.4507,-2.4538,-2.4579,-2.4591,-2.4635,-2.4685,-2.468,-2.4739,-2.4768,-2.4827,-2.4847,-2.4893,-2.4872,-2.4894,-2.4899,-2.4905,-2.4911,-2.476,-2.4901,-2.49,-2.49,-2.49,-2.4899,0,-2.4501,-2.4519,-2.4564,-2.461,-2.4649,-2.4629,-2.4664,-2.4697,-2.4749,-2.4778,-2.4818,-2.4878,-2.4927,-2.4944,-2.4991,-2.5024,-2.5017,-2.5037,-2.5034,-2.5038,-2.4927,-2.4909,-2.5041,-2.5041,-2.5041,-2.5041,-2.5041,-2.5041,-2.4579,-2.465,-2.4654,-2.4737,-2.4754,-2.4811,-2.4833,-2.4861,-2.4884,-2.4953,-2.4993,-2.5004,-2.5028,-2.5077,-2.512,-2.5124,-2.5142,-2.5165,-2.5165,-2.506,-2.5046,-2.5033,-2.5016,-2.5169,-2.5169,-2.5273,-2.5274,-2.5275]}]]